UAL2610 KMCI-KBFI

Flight info

Callsign UAL2610
Flight time 3h 35m
Altitude 40000
Route CHIEF9 CATTS HLC GLL OCS J20 PIH BKE PDT J20 YKM CHINS5
Aircraft B738/M-VGDW/C

Departure

Time 2026-04-26 03:27
Airport Kansas City International Airport (KMCI)

Arrival

Time 2026-04-26 07:02
Airport King County International Airport - Boeing Field (KBFI)
Time Latitude Longitude Altitude Speed Heading
2026-04-26 03:02 39.30015 -94.72155 1013 ft 0 kts 282°
2026-04-26 03:15 39.30015 -94.72154 1013 ft 1 kts 282°
2026-04-26 03:15 39.30009 -94.72125 1013 ft 4 kts 292°
2026-04-26 03:15 39.29995 -94.72099 1013 ft 4 kts 337°
2026-04-26 03:16 39.29983 -94.72096 1013 ft 0 kts 12°
2026-04-26 03:18 39.29984 -94.72096 1013 ft 1 kts 12°
2026-04-26 03:19 39.30001 -94.72091 1013 ft 6 kts 12°
2026-04-26 03:19 39.30060 -94.72072 1013 ft 10 kts 15°
2026-04-26 03:19 39.30068 -94.72070 1013 ft 0 kts 13°
2026-04-26 03:20 39.30087 -94.72064 1013 ft 7 kts 13°
2026-04-26 03:20 39.30123 -94.72069 1013 ft 8 kts 327°
2026-04-26 03:20 39.30148 -94.72178 1013 ft 17 kts 281°
2026-04-26 03:20 39.30162 -94.72267 1013 ft 5 kts 282°
2026-04-26 03:21 39.30155 -94.72314 1013 ft 7 kts 226°
2026-04-26 03:21 39.30082 -94.72342 1013 ft 16 kts 193°
2026-04-26 03:21 39.29939 -94.72385 1014 ft 25 kts 192°
2026-04-26 03:21 39.29768 -94.72435 1013 ft 25 kts 192°
2026-04-26 03:22 39.29617 -94.72478 1013 ft 19 kts 193°
2026-04-26 03:22 39.29558 -94.72568 1013 ft 10 kts 280°
2026-04-26 03:22 39.29534 -94.72600 1013 ft 5 kts 191°
2026-04-26 03:22 39.29493 -94.72611 1013 ft 8 kts 192°
2026-04-26 03:23 39.29422 -94.72634 1013 ft 13 kts 194°
2026-04-26 03:23 39.29314 -94.72667 1013 ft 19 kts 192°
2026-04-26 03:23 39.29212 -94.72659 1013 ft 12 kts 145°
2026-04-26 03:23 39.29192 -94.72642 1012 ft 0 kts 153°
2026-04-26 03:25 39.29190 -94.72641 1012 ft 1 kts 154°
2026-04-26 03:25 39.29145 -94.72638 1011 ft 14 kts 186°
2026-04-26 03:26 39.29090 -94.72641 1012 ft 8 kts 161°
2026-04-26 03:26 39.29078 -94.72605 1012 ft 4 kts 96°
2026-04-26 03:26 39.29040 -94.72108 1015 ft 108 kts 97°
2026-04-26 03:26 39.28958 -94.71118 1099 ft 171 kts 96°
2026-04-26 03:27 39.28944 -94.70938 1140 ft 178 kts 96°
2026-04-26 03:27 39.28843 -94.69297 2428 ft 174 kts 95°
2026-04-26 03:27 39.28774 -94.67818 3993 ft 165 kts 95°
2026-04-26 03:27 39.28725 -94.66750 4590 ft 177 kts 96°
2026-04-26 03:28 39.28614 -94.65293 4877 ft 205 kts 105°
2026-04-26 03:28 39.27851 -94.63626 5195 ft 229 kts 139°
2026-04-26 03:28 39.26387 -94.62732 5866 ft 243 kts 169°
2026-04-26 03:28 39.24606 -94.62735 6439 ft 264 kts 184°
2026-04-26 03:29 39.22745 -94.62990 7353 ft 271 kts 185°
2026-04-26 03:29 39.20859 -94.63263 8351 ft 275 kts 185°
2026-04-26 03:29 39.18982 -94.63823 9272 ft 282 kts 207°
2026-04-26 03:29 39.17595 -94.65554 10251 ft 288 kts 240°
2026-04-26 03:30 39.17014 -94.68099 10848 ft 311 kts 263°
2026-04-26 03:30 39.17051 -94.71019 11207 ft 335 kts 276°
2026-04-26 03:30 39.17521 -94.73998 12026 ft 342 kts 282°
2026-04-26 03:30 39.18133 -94.76940 13125 ft 339 kts 283°
2026-04-26 03:31 39.18768 -94.79877 14087 ft 342 kts 283°
2026-04-26 03:31 39.19397 -94.82844 15022 ft 345 kts 283°
2026-04-26 03:31 39.19570 -94.83674 15289 ft 345 kts 284°
2026-04-26 03:31 39.20203 -94.86637 16389 ft 343 kts 283°
2026-04-26 03:32 39.20803 -94.89657 17153 ft 351 kts 282°
2026-04-26 03:32 39.21389 -94.92719 17983 ft 354 kts 282°
2026-04-26 03:32 39.21977 -94.95823 18808 ft 357 kts 282°
2026-04-26 03:32 39.22566 -94.98943 19519 ft 360 kts 282°
2026-04-26 03:33 39.23165 -95.02129 20004 ft 368 kts 282°
2026-04-26 03:33 39.23770 -95.05328 20778 ft 368 kts 282°
2026-04-26 03:33 39.24381 -95.08558 21385 ft 372 kts 282°
2026-04-26 03:33 39.24998 -95.11823 21921 ft 377 kts 282°
2026-04-26 03:34 39.25622 -95.15126 22475 ft 381 kts 282°
2026-04-26 03:34 39.26250 -95.18455 23047 ft 384 kts 282°
2026-04-26 03:34 39.26881 -95.21815 23583 ft 387 kts 282°
2026-04-26 03:34 39.27518 -95.25203 24109 ft 390 kts 282°
2026-04-26 03:35 39.28160 -95.28625 24608 ft 394 kts 282°
2026-04-26 03:35 39.28805 -95.32075 25182 ft 394 kts 282°
2026-04-26 03:35 39.29431 -95.35479 25753 ft 394 kts 281°
2026-04-26 03:35 39.29729 -95.38999 26255 ft 395 kts 271°
2026-04-26 03:36 39.29771 -95.42539 26760 ft 395 kts 270°
2026-04-26 03:36 39.29771 -95.46097 27243 ft 396 kts 270°
2026-04-26 03:36 39.29771 -95.49664 27698 ft 397 kts 270°
2026-04-26 03:36 39.29781 -95.53239 28129 ft 399 kts 270°
2026-04-26 03:37 39.29801 -95.56825 28569 ft 400 kts 270°
2026-04-26 03:37 39.29832 -95.60419 29033 ft 400 kts 270°
2026-04-26 03:37 39.29868 -95.64024 29436 ft 401 kts 270°
2026-04-26 03:37 39.29906 -95.67634 29810 ft 403 kts 270°
2026-04-26 03:38 39.29944 -95.71244 30210 ft 402 kts 270°
2026-04-26 03:38 39.29981 -95.74858 30573 ft 403 kts 271°
2026-04-26 03:38 39.30017 -95.78435 30898 ft 404 kts 271°
2026-04-26 03:38 39.30053 -95.82068 31299 ft 403 kts 271°
2026-04-26 03:39 39.30087 -95.85677 31793 ft 400 kts 271°
2026-04-26 03:39 39.30119 -95.89254 32321 ft 396 kts 271°
2026-04-26 03:39 39.30149 -95.92791 32832 ft 392 kts 272°
2026-04-26 03:39 39.30178 -95.96298 33270 ft 390 kts 272°
2026-04-26 03:40 39.30205 -95.99797 33710 ft 388 kts 272°
2026-04-26 03:40 39.30233 -96.03254 34236 ft 383 kts 273°
2026-04-26 03:40 39.30259 -96.06667 34786 ft 378 kts 272°
2026-04-26 03:40 39.30285 -96.10063 35060 ft 380 kts 272°
2026-04-26 03:41 39.30310 -96.13486 35278 ft 382 kts 272°
2026-04-26 03:41 39.30334 -96.16928 35563 ft 383 kts 272°
2026-04-26 03:41 39.30355 -96.20370 35897 ft 384 kts 272°
2026-04-26 03:41 39.30375 -96.23819 36207 ft 384 kts 272°
2026-04-26 03:42 39.30393 -96.27272 36468 ft 385 kts 272°
2026-04-26 03:42 39.30411 -96.30732 36739 ft 386 kts 272°
2026-04-26 03:42 39.30428 -96.34179 37146 ft 382 kts 272°
2026-04-26 03:42 39.30444 -96.37560 37551 ft 379 kts 271°
2026-04-26 03:43 39.30459 -96.40958 37893 ft 378 kts 271°
2026-04-26 03:43 39.30472 -96.44355 38126 ft 379 kts 271°
2026-04-26 03:43 39.30485 -96.47761 38330 ft 380 kts 271°
2026-04-26 03:43 39.30496 -96.51180 38561 ft 381 kts 271°
2026-04-26 03:44 39.30508 -96.54605 38797 ft 381 kts 271°
2026-04-26 03:44 39.30519 -96.58032 38994 ft 383 kts 271°
2026-04-26 03:44 39.30529 -96.61474 39181 ft 384 kts 271°
2026-04-26 03:44 39.30539 -96.64928 39335 ft 386 kts 271°
2026-04-26 03:45 39.30545 -96.68398 39491 ft 387 kts 271°
2026-04-26 03:45 39.30550 -96.71876 39748 ft 386 kts 271°
2026-04-26 03:45 39.30556 -96.75346 39893 ft 388 kts 271°
2026-04-26 03:45 39.30561 -96.78805 39898 ft 391 kts 271°
2026-04-26 03:46 39.30566 -96.85808 39889 ft 387 kts 271°
2026-04-26 03:47 39.30565 -96.96172 39898 ft 383 kts 270°
2026-04-26 03:47 39.30561 -97.03046 39904 ft 383 kts 270°
2026-04-26 03:48 39.30552 -97.09884 39907 ft 383 kts 270°
2026-04-26 03:48 39.30539 -97.16763 39908 ft 383 kts 270°
2026-04-26 03:49 39.30522 -97.23651 39909 ft 383 kts 270°
2026-04-26 03:49 39.30502 -97.30539 39923 ft 384 kts 270°
2026-04-26 03:50 39.30476 -97.37447 39921 ft 385 kts 270°
2026-04-26 03:50 39.30448 -97.44318 39914 ft 386 kts 270°
2026-04-26 03:51 39.30415 -97.51135 39917 ft 386 kts 270°
2026-04-26 03:51 39.30377 -97.58072 39920 ft 387 kts 270°
2026-04-26 03:52 39.30336 -97.65019 39929 ft 387 kts 270°
2026-04-26 03:52 39.30289 -97.71967 39914 ft 387 kts 270°
2026-04-26 03:53 39.30240 -97.78883 39926 ft 387 kts 270°
2026-04-26 03:53 39.30188 -97.85399 39927 ft 387 kts 270°
2026-04-26 03:54 39.30147 -97.90377 39926 ft 386 kts 270°
2026-04-26 03:54 39.30089 -97.97321 39927 ft 387 kts 270°
2026-04-26 03:55 39.30035 -98.03094 39925 ft 386 kts 270°
2026-04-26 03:55 39.29954 -98.11149 39923 ft 386 kts 270°
2026-04-26 03:56 39.29892 -98.16951 39925 ft 385 kts 270°
2026-04-26 03:56 39.29814 -98.23810 39933 ft 384 kts 270°
2026-04-26 03:57 39.29734 -98.30691 39935 ft 383 kts 270°
2026-04-26 03:57 39.29652 -98.37562 39939 ft 382 kts 270°
2026-04-26 03:58 39.29565 -98.44424 39938 ft 382 kts 269°
2026-04-26 03:58 39.29473 -98.51280 39932 ft 382 kts 269°
2026-04-26 03:59 39.29383 -98.58126 39935 ft 382 kts 270°
2026-04-26 03:59 39.29287 -98.65053 39945 ft 390 kts 270°
2026-04-26 04:00 39.29182 -98.72110 39936 ft 394 kts 269°
2026-04-26 04:00 39.29071 -98.79187 39938 ft 394 kts 269°
2026-04-26 04:01 39.28954 -98.86264 39943 ft 393 kts 269°
2026-04-26 04:01 39.28832 -98.93267 39954 ft 393 kts 269°
2026-04-26 04:02 39.28709 -99.00328 39961 ft 393 kts 269°
2026-04-26 04:02 39.28582 -99.07383 39960 ft 392 kts 269°
2026-04-26 04:03 39.28450 -99.14422 39964 ft 391 kts 269°
2026-04-26 04:03 39.28314 -99.21397 39959 ft 391 kts 269°
2026-04-26 04:04 39.28176 -99.28405 39963 ft 391 kts 269°
2026-04-26 04:04 39.28031 -99.35422 39973 ft 390 kts 269°
2026-04-26 04:05 39.27882 -99.42401 39981 ft 389 kts 269°
2026-04-26 04:05 39.27729 -99.49383 39990 ft 389 kts 269°
2026-04-26 04:06 39.27571 -99.56361 40001 ft 388 kts 269°
2026-04-26 04:06 39.27414 -99.63285 40000 ft 388 kts 269°
2026-04-26 04:07 39.27250 -99.70255 40000 ft 388 kts 269°
2026-04-26 04:07 39.27081 -99.77211 40009 ft 388 kts 269°
2026-04-26 04:08 39.26909 -99.84162 40011 ft 388 kts 269°
2026-04-26 04:08 39.26732 -99.91115 40009 ft 388 kts 269°
2026-04-26 04:09 39.26550 -99.98082 40006 ft 388 kts 269°
2026-04-26 04:09 39.26364 -100.05042 40011 ft 388 kts 269°
2026-04-26 04:10 39.26174 -100.12011 40009 ft 389 kts 269°
2026-04-26 04:10 39.26027 -100.18939 40005 ft 389 kts 273°
2026-04-26 04:11 39.26919 -100.25835 40006 ft 391 kts 284°
2026-04-26 04:11 39.28873 -100.32406 40007 ft 393 kts 289°
2026-04-26 04:12 39.30936 -100.38935 39998 ft 393 kts 289°
2026-04-26 04:12 39.32985 -100.45479 40000 ft 393 kts 289°
2026-04-26 04:13 39.35016 -100.52029 39999 ft 393 kts 289°
2026-04-26 04:13 39.37025 -100.58544 40002 ft 392 kts 289°
2026-04-26 04:14 39.39043 -100.65108 40010 ft 392 kts 289°
2026-04-26 04:14 39.41054 -100.71667 40016 ft 392 kts 289°
2026-04-26 04:15 39.43063 -100.78235 40018 ft 392 kts 289°
2026-04-26 04:15 39.45069 -100.84809 40026 ft 392 kts 289°
2026-04-26 04:16 39.47071 -100.91384 40026 ft 393 kts 289°
2026-04-26 04:16 39.49070 -100.97968 40030 ft 393 kts 288°
2026-04-26 04:17 39.51056 -101.04527 40027 ft 394 kts 289°
2026-04-26 04:17 39.53057 -101.11130 40032 ft 394 kts 289°
2026-04-26 04:18 39.55052 -101.17742 40041 ft 394 kts 289°
2026-04-26 04:18 39.57046 -101.24372 40034 ft 394 kts 288°
2026-04-26 04:19 39.59036 -101.31007 40041 ft 395 kts 288°
2026-04-26 04:19 39.61024 -101.37653 40045 ft 395 kts 288°
2026-04-26 04:20 39.62995 -101.44258 40046 ft 395 kts 288°
2026-04-26 04:20 39.64979 -101.50924 40047 ft 396 kts 288°
2026-04-26 04:21 39.66960 -101.57592 40040 ft 396 kts 288°
2026-04-26 04:21 39.68939 -101.64272 40047 ft 396 kts 288°
2026-04-26 04:22 39.70913 -101.70952 40045 ft 396 kts 288°
2026-04-26 04:22 39.72882 -101.77631 40044 ft 396 kts 288°
2026-04-26 04:23 39.74838 -101.84283 40042 ft 397 kts 288°
2026-04-26 04:23 39.76804 -101.90986 40051 ft 397 kts 288°
2026-04-26 04:24 39.78765 -101.97689 40041 ft 397 kts 288°
2026-04-26 04:24 39.80726 -102.04408 40051 ft 397 kts 288°
2026-04-26 04:25 39.82683 -102.11133 40042 ft 397 kts 288°
2026-04-26 04:25 39.84633 -102.17849 40054 ft 397 kts 288°
2026-04-26 04:26 39.86580 -102.24574 40058 ft 397 kts 288°
2026-04-26 04:26 39.88523 -102.31300 40056 ft 397 kts 288°
2026-04-26 04:27 39.90466 -102.38036 40048 ft 397 kts 288°
2026-04-26 04:27 39.92390 -102.44725 40052 ft 397 kts 288°
2026-04-26 04:28 39.94320 -102.51456 40053 ft 396 kts 288°
2026-04-26 04:28 39.96248 -102.58201 40053 ft 396 kts 288°
2026-04-26 04:29 39.98169 -102.64939 40057 ft 396 kts 288°
2026-04-26 04:29 40.00086 -102.71680 40053 ft 396 kts 287°
2026-04-26 04:30 40.01986 -102.78377 40057 ft 396 kts 287°
2026-04-26 04:30 40.03899 -102.85137 40052 ft 397 kts 287°
2026-04-26 04:31 40.05808 -102.91904 40060 ft 397 kts 287°
2026-04-26 04:31 40.07697 -102.98693 40048 ft 398 kts 287°
2026-04-26 04:32 40.09600 -103.05487 40046 ft 398 kts 287°
2026-04-26 04:32 40.11491 -103.12235 40039 ft 398 kts 287°
2026-04-26 04:33 40.13393 -103.19039 40038 ft 398 kts 286°
2026-04-26 04:33 40.15291 -103.25852 40037 ft 398 kts 286°
2026-04-26 04:34 40.17173 -103.32627 40035 ft 399 kts 286°
2026-04-26 04:34 40.19073 -103.39487 40039 ft 399 kts 286°
2026-04-26 04:35 40.20946 -103.46267 40035 ft 399 kts 286°
2026-04-26 04:35 40.22827 -103.53094 40034 ft 399 kts 286°
2026-04-26 04:36 40.24706 -103.59931 40043 ft 399 kts 286°
2026-04-26 04:36 40.26579 -103.66765 40035 ft 399 kts 286°
2026-04-26 04:37 40.28450 -103.73608 40038 ft 398 kts 286°
2026-04-26 04:37 40.29978 -103.79215 40032 ft 398 kts 286°
2026-04-26 04:38 40.31843 -103.86049 40042 ft 398 kts 285°
2026-04-26 04:38 40.33693 -103.92885 40039 ft 398 kts 285°
2026-04-26 04:39 40.35542 -103.99727 40038 ft 398 kts 285°
2026-04-26 04:39 40.37387 -104.06567 40042 ft 398 kts 285°
2026-04-26 04:40 40.39229 -104.13414 40064 ft 397 kts 286°
2026-04-26 04:40 40.41096 -104.20231 40061 ft 397 kts 285°
2026-04-26 04:41 40.42891 -104.27041 40077 ft 397 kts 285°
2026-04-26 04:41 40.44704 -104.33878 40094 ft 397 kts 285°
2026-04-26 04:42 40.46526 -104.40729 40110 ft 397 kts 285°
2026-04-26 04:42 40.48336 -104.47547 40124 ft 397 kts 285°
2026-04-26 04:43 40.50153 -104.54410 40135 ft 397 kts 285°
2026-04-26 04:43 40.51667 -104.60114 40141 ft 398 kts 285°
2026-04-26 04:44 40.53498 -104.66990 40139 ft 398 kts 285°
2026-04-26 04:44 40.55328 -104.73880 40123 ft 399 kts 285°
2026-04-26 04:45 40.57146 -104.80734 40099 ft 399 kts 285°
2026-04-26 04:45 40.58971 -104.87622 40062 ft 399 kts 285°
2026-04-26 04:46 40.60785 -104.94506 40066 ft 397 kts 285°
2026-04-26 04:46 40.62579 -105.01337 40039 ft 391 kts 285°
2026-04-26 04:47 40.64350 -105.08106 40043 ft 392 kts 285°
2026-04-26 04:47 40.66137 -105.14966 40030 ft 399 kts 285°
2026-04-26 04:48 40.68836 -105.25345 40017 ft 400 kts 285°
2026-04-26 04:48 40.70634 -105.32282 40018 ft 400 kts 285°
2026-04-26 04:49 40.72428 -105.39223 40012 ft 399 kts 285°
2026-04-26 04:49 40.74215 -105.46159 40009 ft 399 kts 285°
2026-04-26 04:50 40.75994 -105.53081 40001 ft 398 kts 285°
2026-04-26 04:50 40.77757 -105.59965 39996 ft 398 kts 285°
2026-04-26 04:51 40.79524 -105.66882 39986 ft 397 kts 285°
2026-04-26 04:51 40.81284 -105.73793 39988 ft 397 kts 285°
2026-04-26 04:52 40.83036 -105.80698 39979 ft 397 kts 285°
2026-04-26 04:52 40.84790 -105.87619 39985 ft 397 kts 285°
2026-04-26 04:53 40.86535 -105.94531 39968 ft 397 kts 285°
2026-04-26 04:53 40.88277 -106.01450 39977 ft 396 kts 285°
2026-04-26 04:54 40.89998 -106.08305 39969 ft 396 kts 284°
2026-04-26 04:54 40.91729 -106.15218 39978 ft 395 kts 284°
2026-04-26 04:55 40.93452 -106.22121 39983 ft 396 kts 284°
2026-04-26 04:55 40.95175 -106.29042 39973 ft 396 kts 284°
2026-04-26 04:56 40.96894 -106.35969 39957 ft 397 kts 284°
2026-04-26 04:56 40.98613 -106.42919 39960 ft 397 kts 284°
2026-04-26 04:57 41.00316 -106.49822 39959 ft 397 kts 284°
2026-04-26 04:57 41.02029 -106.56787 39947 ft 397 kts 284°
2026-04-26 04:58 41.03714 -106.63730 40072 ft 393 kts 284°
2026-04-26 04:58 41.05351 -106.70655 40002 ft 396 kts 283°
2026-04-26 04:59 41.07054 -106.77628 39956 ft 398 kts 284°
2026-04-26 04:59 41.08780 -106.84608 39947 ft 398 kts 285°
2026-04-26 05:00 41.10510 -106.91585 39936 ft 398 kts 284°
2026-04-26 05:00 41.12200 -106.98535 39934 ft 398 kts 284°
2026-04-26 05:01 41.13886 -107.05538 39933 ft 398 kts 284°
2026-04-26 05:01 41.15559 -107.12563 39930 ft 398 kts 284°
2026-04-26 05:02 41.17233 -107.19579 39925 ft 399 kts 284°
2026-04-26 05:02 41.18909 -107.26598 39918 ft 399 kts 284°
2026-04-26 05:03 41.20567 -107.33568 39932 ft 398 kts 284°
2026-04-26 05:03 41.22232 -107.40587 39924 ft 398 kts 283°
2026-04-26 05:04 41.23894 -107.47611 39917 ft 398 kts 283°
2026-04-26 05:04 41.25554 -107.54652 39922 ft 398 kts 283°
2026-04-26 05:05 41.27184 -107.61596 39917 ft 398 kts 283°
2026-04-26 05:05 41.28832 -107.68640 39925 ft 398 kts 283°
2026-04-26 05:06 41.30466 -107.75622 39924 ft 398 kts 283°
2026-04-26 05:06 41.32107 -107.82663 39920 ft 398 kts 283°
2026-04-26 05:07 41.33745 -107.89704 39916 ft 398 kts 283°
2026-04-26 05:07 41.35373 -107.96752 39917 ft 398 kts 283°
2026-04-26 05:08 41.37000 -108.03803 39908 ft 399 kts 283°
2026-04-26 05:08 41.38627 -108.10880 39907 ft 399 kts 283°
2026-04-26 05:09 41.40240 -108.17910 39903 ft 400 kts 283°
2026-04-26 05:09 41.41863 -108.25012 39901 ft 401 kts 283°
2026-04-26 05:10 41.43484 -108.32126 39897 ft 401 kts 283°
2026-04-26 05:10 41.45100 -108.39250 39885 ft 401 kts 283°
2026-04-26 05:11 41.46714 -108.46375 39890 ft 401 kts 283°
2026-04-26 05:11 41.48313 -108.53464 39880 ft 401 kts 283°
2026-04-26 05:12 41.49916 -108.60594 39880 ft 401 kts 283°
2026-04-26 05:12 41.51513 -108.67719 39877 ft 400 kts 283°
2026-04-26 05:13 41.53107 -108.74836 39874 ft 400 kts 283°
2026-04-26 05:13 41.54704 -108.81969 39872 ft 400 kts 283°
2026-04-26 05:14 41.56274 -108.89061 39867 ft 400 kts 283°
2026-04-26 05:14 41.57848 -108.96184 39873 ft 400 kts 283°
2026-04-26 05:15 41.59611 -109.03256 39867 ft 405 kts 290°
2026-04-26 05:15 41.62147 -109.10003 39876 ft 406 kts 292°
2026-04-26 05:16 41.64694 -109.16709 39867 ft 406 kts 292°
2026-04-26 05:16 41.67235 -109.23467 39871 ft 406 kts 291°
2026-04-26 05:17 41.69757 -109.30238 39865 ft 407 kts 291°
2026-04-26 05:17 41.72278 -109.37028 39869 ft 408 kts 291°
2026-04-26 05:18 41.74797 -109.43836 39868 ft 409 kts 291°
2026-04-26 05:18 41.77321 -109.50666 39872 ft 410 kts 291°
2026-04-26 05:19 41.79846 -109.57524 39870 ft 410 kts 291°
2026-04-26 05:19 41.82356 -109.64356 39872 ft 411 kts 291°
2026-04-26 05:20 41.84883 -109.71247 39871 ft 412 kts 291°
2026-04-26 05:20 41.87413 -109.78164 39881 ft 412 kts 291°
2026-04-26 05:21 41.89938 -109.85085 39876 ft 412 kts 291°
2026-04-26 05:21 41.92453 -109.91995 39883 ft 412 kts 291°
2026-04-26 05:22 41.94967 -109.98924 39879 ft 412 kts 291°
2026-04-26 05:22 41.97466 -110.05833 39878 ft 412 kts 291°
2026-04-26 05:23 41.99969 -110.12762 39881 ft 412 kts 291°
2026-04-26 05:23 42.02471 -110.19703 39881 ft 412 kts 291°
2026-04-26 05:24 42.04968 -110.26652 39881 ft 412 kts 291°
2026-04-26 05:24 42.07460 -110.33606 39874 ft 412 kts 291°
2026-04-26 05:25 42.09949 -110.40564 39865 ft 412 kts 291°
2026-04-26 05:25 42.12431 -110.47521 39868 ft 412 kts 291°
2026-04-26 05:26 42.14893 -110.54441 39862 ft 412 kts 291°
2026-04-26 05:26 42.17363 -110.61401 39869 ft 411 kts 291°
2026-04-26 05:27 42.19830 -110.68369 39865 ft 412 kts 291°
2026-04-26 05:27 42.22302 -110.75361 39853 ft 413 kts 291°
2026-04-26 05:28 42.24773 -110.82368 39864 ft 413 kts 291°
2026-04-26 05:28 42.27220 -110.89336 39850 ft 414 kts 291°
2026-04-26 05:29 42.29678 -110.96366 39846 ft 414 kts 291°
2026-04-26 05:29 42.32135 -111.03395 39846 ft 414 kts 291°
2026-04-26 05:30 42.34597 -111.10451 39830 ft 415 kts 290°
2026-04-26 05:30 42.36637 -111.16310 39829 ft 414 kts 290°
2026-04-26 05:31 42.39083 -111.23354 39833 ft 413 kts 290°
2026-04-26 05:31 42.41520 -111.30396 39845 ft 413 kts 290°
2026-04-26 05:32 42.43957 -111.37446 39837 ft 414 kts 290°
2026-04-26 05:32 42.46398 -111.44521 39826 ft 414 kts 290°
2026-04-26 05:33 42.48815 -111.51552 39833 ft 414 kts 290°
2026-04-26 05:33 42.51241 -111.58633 39839 ft 414 kts 290°
2026-04-26 05:34 42.53663 -111.65715 39826 ft 415 kts 290°
2026-04-26 05:34 42.56087 -111.72815 39815 ft 415 kts 290°
2026-04-26 05:35 42.58504 -111.79915 39822 ft 414 kts 290°
2026-04-26 05:35 42.60916 -111.87026 39814 ft 414 kts 290°
2026-04-26 05:36 42.63322 -111.94137 39823 ft 414 kts 290°
2026-04-26 05:36 42.65725 -112.01260 39802 ft 415 kts 290°
2026-04-26 05:37 42.68127 -112.08392 39826 ft 415 kts 290°
2026-04-26 05:37 42.70529 -112.15541 39807 ft 416 kts 290°
2026-04-26 05:38 42.72931 -112.22714 39808 ft 417 kts 290°
2026-04-26 05:38 42.75328 -112.29891 39804 ft 417 kts 290°
2026-04-26 05:39 42.77707 -112.37038 39806 ft 417 kts 290°
2026-04-26 05:39 42.80100 -112.44231 39788 ft 418 kts 290°
2026-04-26 05:40 42.82491 -112.51444 39793 ft 418 kts 290°
2026-04-26 05:40 42.84882 -112.58678 39794 ft 419 kts 290°
2026-04-26 05:41 42.87253 -112.65787 39790 ft 421 kts 292°
2026-04-26 05:41 42.90096 -112.72799 39796 ft 423 kts 295°
2026-04-26 05:42 42.93047 -112.79735 39794 ft 425 kts 297°
2026-04-26 05:42 42.95902 -112.86677 39762 ft 423 kts 293°
2026-04-26 05:43 42.98742 -112.93640 39808 ft 420 kts 295°
2026-04-26 05:43 43.01646 -113.00601 39795 ft 423 kts 295°
2026-04-26 05:44 43.04539 -113.07471 39798 ft 424 kts 295°
2026-04-26 05:44 43.07448 -113.14491 39798 ft 425 kts 295°
2026-04-26 05:45 43.10353 -113.21554 39795 ft 426 kts 295°
2026-04-26 05:45 43.13257 -113.28644 39807 ft 427 kts 295°
2026-04-26 05:46 43.16159 -113.35755 39804 ft 428 kts 295°
2026-04-26 05:46 43.19059 -113.42876 39804 ft 428 kts 295°
2026-04-26 05:47 43.21962 -113.50017 39805 ft 429 kts 295°
2026-04-26 05:47 43.24851 -113.57144 39807 ft 430 kts 295°
2026-04-26 05:48 43.27754 -113.64314 39809 ft 429 kts 295°
2026-04-26 05:48 43.30655 -113.71506 39827 ft 430 kts 295°
2026-04-26 05:49 43.35000 -113.82286 39811 ft 430 kts 295°
2026-04-26 05:50 43.37863 -113.89432 39819 ft 429 kts 295°
2026-04-26 05:50 43.40741 -113.96635 39820 ft 430 kts 295°
2026-04-26 05:51 43.43619 -114.03846 39823 ft 430 kts 295°
2026-04-26 05:51 43.46494 -114.11077 39837 ft 430 kts 295°
2026-04-26 05:52 43.49367 -114.18306 39830 ft 430 kts 295°
2026-04-26 05:52 43.52231 -114.25540 39830 ft 431 kts 295°
2026-04-26 05:53 43.55070 -114.32740 39838 ft 431 kts 295°
2026-04-26 05:53 43.57938 -114.40016 39832 ft 432 kts 295°
2026-04-26 05:54 43.60805 -114.47302 39835 ft 432 kts 295°
2026-04-26 05:54 43.63652 -114.54560 39835 ft 432 kts 295°
2026-04-26 05:55 43.66500 -114.61872 39832 ft 433 kts 295°
2026-04-26 05:55 43.69361 -114.69217 39818 ft 434 kts 295°
2026-04-26 05:56 43.72221 -114.76561 39829 ft 434 kts 295°
2026-04-26 05:56 43.75068 -114.83908 39811 ft 434 kts 295°
2026-04-26 05:57 43.77897 -114.91232 39830 ft 433 kts 295°
2026-04-26 05:57 43.80734 -114.98592 39820 ft 434 kts 295°
2026-04-26 05:58 43.83574 -115.05974 39829 ft 434 kts 295°
2026-04-26 05:58 43.86410 -115.13362 39823 ft 434 kts 295°
2026-04-26 05:59 43.89247 -115.20779 39806 ft 435 kts 295°
2026-04-26 05:59 43.92078 -115.28202 39809 ft 436 kts 295°
2026-04-26 06:00 43.94913 -115.35638 39827 ft 436 kts 295°
2026-04-26 06:00 43.97725 -115.43037 39831 ft 437 kts 294°
2026-04-26 06:01 44.00551 -115.50518 39823 ft 438 kts 295°
2026-04-26 06:01 44.03380 -115.58012 39804 ft 439 kts 295°
2026-04-26 06:02 44.06215 -115.65536 39823 ft 439 kts 295°
2026-04-26 06:02 44.09043 -115.73068 39825 ft 438 kts 295°
2026-04-26 06:03 44.11846 -115.80550 39830 ft 438 kts 295°
2026-04-26 06:03 44.14660 -115.88086 39826 ft 439 kts 295°
2026-04-26 06:04 44.17468 -115.95637 39823 ft 439 kts 294°
2026-04-26 06:04 44.20280 -116.03193 39828 ft 439 kts 294°
2026-04-26 06:05 44.23082 -116.10749 39828 ft 439 kts 294°
2026-04-26 06:05 44.25874 -116.18319 39817 ft 439 kts 294°
2026-04-26 06:06 44.28665 -116.25902 39835 ft 439 kts 295°
2026-04-26 06:06 44.31458 -116.33505 39826 ft 440 kts 295°
2026-04-26 06:07 44.34256 -116.41125 39828 ft 441 kts 295°
2026-04-26 06:07 44.37041 -116.48734 39834 ft 443 kts 295°
2026-04-26 06:08 44.39839 -116.56418 39837 ft 444 kts 295°
2026-04-26 06:08 44.42641 -116.64128 39849 ft 445 kts 295°
2026-04-26 06:09 44.45440 -116.71848 39844 ft 445 kts 295°
2026-04-26 06:09 44.48242 -116.79606 39839 ft 446 kts 295°
2026-04-26 06:10 44.51041 -116.87377 39846 ft 446 kts 295°
2026-04-26 06:10 44.53813 -116.95106 39848 ft 447 kts 295°
2026-04-26 06:11 44.56609 -117.02913 39841 ft 447 kts 295°
2026-04-26 06:11 44.59398 -117.10718 39850 ft 448 kts 295°
2026-04-26 06:12 44.62182 -117.18536 39846 ft 448 kts 295°
2026-04-26 06:12 44.64960 -117.26355 39849 ft 447 kts 295°
2026-04-26 06:13 44.67730 -117.34178 39862 ft 447 kts 295°
2026-04-26 06:13 44.70500 -117.42017 39864 ft 448 kts 295°
2026-04-26 06:14 44.73264 -117.49872 39863 ft 448 kts 295°
2026-04-26 06:14 44.76022 -117.57734 39858 ft 448 kts 295°
2026-04-26 06:15 44.78740 -117.65505 39862 ft 448 kts 295°
2026-04-26 06:15 44.81444 -117.73250 39861 ft 447 kts 295°
2026-04-26 06:16 44.84511 -117.80885 39859 ft 450 kts 306°
2026-04-26 06:16 44.88865 -117.87238 39868 ft 452 kts 316°
2026-04-26 06:17 44.93559 -117.93177 39864 ft 453 kts 316°
2026-04-26 06:17 44.98242 -117.99147 39861 ft 454 kts 316°
2026-04-26 06:18 45.02872 -118.05138 39870 ft 453 kts 316°
2026-04-26 06:18 45.07511 -118.11187 39867 ft 453 kts 316°
2026-04-26 06:19 45.12142 -118.17243 39870 ft 453 kts 316°
2026-04-26 06:19 45.15990 -118.22281 39875 ft 453 kts 316°
2026-04-26 06:20 45.20617 -118.28356 39867 ft 453 kts 316°
2026-04-26 06:20 45.25238 -118.34436 39873 ft 453 kts 316°
2026-04-26 06:21 45.29860 -118.40528 39864 ft 453 kts 316°
2026-04-26 06:21 45.34474 -118.46627 39872 ft 452 kts 316°
2026-04-26 06:22 45.39053 -118.52693 39866 ft 453 kts 316°
2026-04-26 06:22 45.43658 -118.58807 39861 ft 452 kts 316°
2026-04-26 06:23 45.48258 -118.64929 39862 ft 452 kts 316°
2026-04-26 06:23 45.52842 -118.71045 39872 ft 451 kts 316°
2026-04-26 06:24 45.57421 -118.77171 39869 ft 452 kts 316°
2026-04-26 06:24 45.62003 -118.83316 39874 ft 451 kts 316°
2026-04-26 06:25 45.66581 -118.89470 39871 ft 452 kts 316°
2026-04-26 06:25 45.71084 -118.95728 39866 ft 451 kts 311°
2026-04-26 06:26 45.75158 -119.02552 39870 ft 451 kts 309°
2026-04-26 06:26 45.79158 -119.09466 39871 ft 451 kts 309°
2026-04-26 06:27 45.83186 -119.16362 39871 ft 451 kts 309°
2026-04-26 06:27 45.87230 -119.23234 39869 ft 451 kts 309°
2026-04-26 06:28 45.91272 -119.30107 39870 ft 451 kts 309°
2026-04-26 06:28 45.95282 -119.36945 39870 ft 450 kts 309°
2026-04-26 06:29 45.99318 -119.43854 39873 ft 451 kts 309°
2026-04-26 06:29 46.03354 -119.50764 39867 ft 451 kts 310°
2026-04-26 06:30 46.07388 -119.57693 39873 ft 451 kts 310°
2026-04-26 06:30 46.11410 -119.64627 39867 ft 450 kts 309°
2026-04-26 06:31 46.15420 -119.71560 39876 ft 450 kts 309°
2026-04-26 06:31 46.19430 -119.78498 39872 ft 450 kts 309°
2026-04-26 06:32 46.23407 -119.85396 39868 ft 449 kts 309°
2026-04-26 06:32 46.27403 -119.92343 39867 ft 449 kts 309°
2026-04-26 06:33 46.31391 -119.99296 39871 ft 449 kts 309°
2026-04-26 06:33 46.35380 -120.06276 39868 ft 449 kts 309°
2026-04-26 06:34 46.39359 -120.13257 39881 ft 449 kts 309°
2026-04-26 06:34 46.43314 -120.20205 39880 ft 450 kts 309°
2026-04-26 06:34 46.45244 -120.23601 39421 ft 455 kts 309°
2026-04-26 06:35 46.47249 -120.27138 38811 ft 452 kts 309°
2026-04-26 06:35 46.49237 -120.30649 38154 ft 449 kts 309°
2026-04-26 06:35 46.51217 -120.34153 37443 ft 448 kts 309°
2026-04-26 06:35 46.53159 -120.37594 36756 ft 446 kts 309°
2026-04-26 06:36 46.55116 -120.41061 36236 ft 440 kts 310°
2026-04-26 06:36 46.57041 -120.44481 35710 ft 434 kts 309°
2026-04-26 06:36 46.58845 -120.47962 35214 ft 429 kts 306°
2026-04-26 06:36 46.60547 -120.51509 34700 ft 425 kts 305°
2026-04-26 06:37 46.62203 -120.55055 34194 ft 421 kts 305°
2026-04-26 06:37 46.63838 -120.58567 33689 ft 417 kts 305°
2026-04-26 06:37 46.65466 -120.62041 33183 ft 413 kts 305°
2026-04-26 06:37 46.67088 -120.65480 32682 ft 410 kts 305°
2026-04-26 06:38 46.68697 -120.68878 32182 ft 406 kts 305°
2026-04-26 06:38 46.70298 -120.72249 31691 ft 402 kts 305°
2026-04-26 06:38 46.71885 -120.75590 31202 ft 399 kts 305°
2026-04-26 06:38 46.73455 -120.78900 30721 ft 395 kts 305°
2026-04-26 06:39 46.74992 -120.82147 30249 ft 392 kts 305°
2026-04-26 06:39 46.76532 -120.85407 29771 ft 389 kts 305°
2026-04-26 06:39 46.78061 -120.88648 29288 ft 386 kts 305°
2026-04-26 06:39 46.79577 -120.91861 28797 ft 383 kts 305°
2026-04-26 06:40 46.81082 -120.95053 28305 ft 379 kts 305°
2026-04-26 06:40 46.82573 -120.98216 27802 ft 377 kts 305°
2026-04-26 06:40 46.84036 -121.01321 27314 ft 374 kts 305°
2026-04-26 06:40 46.85523 -121.04484 26823 ft 371 kts 305°
2026-04-26 06:41 46.86956 -121.07535 26347 ft 368 kts 305°
2026-04-26 06:41 46.88394 -121.10603 25869 ft 365 kts 305°
2026-04-26 06:41 46.89842 -121.13697 25390 ft 362 kts 305°
2026-04-26 06:41 46.91253 -121.16723 24927 ft 358 kts 305°
2026-04-26 06:42 46.92634 -121.19690 24468 ft 355 kts 305°
2026-04-26 06:42 46.94022 -121.22673 24006 ft 353 kts 305°
2026-04-26 06:42 46.95327 -121.25472 23573 ft 351 kts 305°
2026-04-26 06:42 46.96708 -121.28439 23116 ft 348 kts 305°
2026-04-26 06:43 46.98065 -121.31356 22670 ft 345 kts 305°
2026-04-26 06:43 46.99410 -121.34253 22208 ft 342 kts 305°
2026-04-26 06:43 47.00744 -121.37131 21766 ft 340 kts 305°
2026-04-26 06:43 47.02070 -121.39989 21318 ft 338 kts 305°
2026-04-26 06:44 47.03384 -121.42826 20886 ft 335 kts 305°
2026-04-26 06:44 47.04694 -121.45642 20442 ft 333 kts 306°
2026-04-26 06:44 47.05994 -121.48444 20003 ft 331 kts 306°
2026-04-26 06:44 47.07263 -121.51192 19573 ft 329 kts 306°
2026-04-26 06:45 47.08545 -121.53979 19135 ft 327 kts 306°
2026-04-26 06:45 47.09808 -121.56745 18703 ft 325 kts 306°
2026-04-26 06:45 47.11059 -121.59479 18364 ft 320 kts 305°
2026-04-26 06:45 47.12285 -121.62197 17947 ft 318 kts 305°
2026-04-26 06:46 47.13505 -121.64907 17532 ft 316 kts 305°
2026-04-26 06:46 47.14699 -121.67569 17120 ft 315 kts 305°
2026-04-26 06:46 47.15895 -121.70250 16680 ft 313 kts 305°
2026-04-26 06:46 47.17087 -121.72910 16290 ft 310 kts 307°
2026-04-26 06:47 47.18334 -121.75495 15862 ft 309 kts 307°
2026-04-26 06:47 47.19568 -121.78075 15443 ft 307 kts 307°
2026-04-26 06:47 47.20779 -121.80669 15042 ft 306 kts 307°
2026-04-26 06:47 47.21963 -121.83238 14804 ft 303 kts 307°
2026-04-26 06:48 47.23140 -121.85808 14563 ft 304 kts 306°
2026-04-26 06:48 47.24309 -121.88368 14334 ft 307 kts 307°
2026-04-26 06:48 47.25494 -121.91007 14098 ft 310 kts 306°
2026-04-26 06:48 47.26693 -121.93649 13855 ft 308 kts 307°
2026-04-26 06:49 47.27884 -121.96263 13619 ft 307 kts 307°
2026-04-26 06:49 47.29070 -121.98864 13386 ft 305 kts 307°
2026-04-26 06:49 47.30250 -122.01461 13158 ft 304 kts 307°
2026-04-26 06:49 47.31424 -122.04055 12920 ft 304 kts 307°
2026-04-26 06:50 47.32593 -122.06645 12691 ft 303 kts 307°
2026-04-26 06:50 47.33760 -122.09233 12468 ft 303 kts 307°
2026-04-26 06:50 47.34919 -122.11819 12265 ft 301 kts 307°
2026-04-26 06:50 47.36046 -122.14355 12141 ft 291 kts 307°
2026-04-26 06:51 47.37142 -122.16837 11806 ft 288 kts 307°
2026-04-26 06:51 47.39367 -122.21829 10676 ft 297 kts 306°
2026-04-26 06:51 47.40527 -122.24336 10309 ft 292 kts 307°
2026-04-26 06:52 47.41672 -122.26769 10073 ft 285 kts 306°
2026-04-26 06:52 47.42809 -122.29154 9706 ft 284 kts 307°
2026-04-26 06:52 47.43950 -122.31512 9380 ft 280 kts 306°
2026-04-26 06:52 47.45092 -122.33835 9051 ft 278 kts 307°
2026-04-26 06:53 47.46220 -122.36094 8827 ft 265 kts 307°
2026-04-26 06:53 47.47277 -122.38193 8732 ft 242 kts 307°
2026-04-26 06:53 47.48259 -122.40135 8332 ft 233 kts 307°
2026-04-26 06:53 47.49392 -122.41819 7737 ft 232 kts 328°
2026-04-26 06:54 47.50788 -122.42994 7224 ft 231 kts 330°
2026-04-26 06:54 47.52165 -122.44161 6833 ft 227 kts 330°
2026-04-26 06:54 47.53536 -122.45333 6333 ft 224 kts 330°
2026-04-26 06:54 47.54868 -122.46477 5809 ft 223 kts 330°
2026-04-26 06:55 47.56223 -122.47644 5289 ft 221 kts 330°
2026-04-26 06:55 47.57531 -122.48772 4783 ft 220 kts 330°
2026-04-26 06:55 47.58847 -122.49906 4263 ft 218 kts 330°
2026-04-26 06:55 47.60168 -122.51040 3777 ft 220 kts 330°
2026-04-26 06:56 47.61485 -122.52169 3446 ft 217 kts 330°
2026-04-26 06:56 47.62760 -122.53264 3295 ft 204 kts 330°
2026-04-26 06:56 47.63964 -122.54230 3186 ft 189 kts 340°
2026-04-26 06:56 47.65212 -122.54233 3063 ft 177 kts 21°
2026-04-26 06:57 47.66124 -122.53065 2799 ft 176 kts 57°
2026-04-26 06:57 47.66613 -122.51423 2486 ft 179 kts 83°
2026-04-26 06:57 47.66529 -122.50255 2334 ft 176 kts 108°
2026-04-26 06:57 47.66047 -122.48607 1955 ft 175 kts 115°
2026-04-26 06:58 47.65554 -122.47036 1965 ft 165 kts 115°
2026-04-26 06:58 47.65068 -122.45468 2000 ft 165 kts 115°
2026-04-26 06:58 47.64485 -122.44029 2002 ft 163 kts 124°
2026-04-26 06:58 47.64008 -122.42522 2005 ft 164 kts 112°
2026-04-26 06:59 47.63570 -122.40950 2001 ft 165 kts 112°
2026-04-26 06:59 47.63119 -122.39381 1999 ft 165 kts 117°
2026-04-26 06:59 47.62315 -122.38204 1870 ft 164 kts 151°
2026-04-26 06:59 47.61327 -122.37331 1663 ft 165 kts 148°
2026-04-26 07:00 47.60349 -122.36474 1436 ft 162 kts 150°
2026-04-26 07:00 47.59371 -122.35642 1228 ft 162 kts 150°
2026-04-26 07:00 47.58390 -122.34811 1011 ft 162 kts 150°
2026-04-26 07:00 47.57444 -122.34009 823 ft 150 kts 150°
2026-04-26 07:01 47.56582 -122.33279 602 ft 136 kts 150°
2026-04-26 07:01 47.55785 -122.32600 376 ft 128 kts 150°
2026-04-26 07:01 47.55002 -122.31944 261 ft 130 kts 150°
2026-04-26 07:01 47.54220 -122.31270 88 ft 128 kts 150°
2026-04-26 07:02 47.53494 -122.30663 25 ft 101 kts 151°
2026-04-26 07:02 47.53068 -122.30306 27 ft 40 kts 150°
2026-04-26 07:02 47.52862 -122.30133 23 ft 35 kts 150°
2026-04-26 07:02 47.52700 -122.30010 24 ft 16 kts 178°
2026-04-26 07:03 47.52657 -122.30094 27 ft 9 kts 275°
2026-04-26 07:03 47.52696 -122.30138 27 ft 8 kts 329°
2026-04-26 07:03 47.52757 -122.30193 30 ft 14 kts 330°
2026-04-26 07:03 47.52877 -122.30293 27 ft 24 kts 330°
2026-04-26 07:04 47.53001 -122.30398 30 ft 13 kts 331°
2026-04-26 07:04 47.53075 -122.30472 26 ft 12 kts 303°
2026-04-26 07:04 47.53118 -122.30579 27 ft 12 kts 306°
2026-04-26 07:04 47.53174 -122.30673 26 ft 12 kts 314°
2026-04-26 07:05 47.53215 -122.30750 26 ft 8 kts 307°
2026-04-26 07:05 47.53252 -122.30815 27 ft 8 kts 313°
2026-04-26 07:05 47.53296 -122.30864 27 ft 8 kts 331°
2026-04-26 07:05 47.53340 -122.30901 27 ft 7 kts 330°
2026-04-26 07:06 47.53382 -122.30936 27 ft 7 kts 330°
2026-04-26 07:06 47.53409 -122.30959 27 ft 7 kts 330°
2026-04-26 07:06 47.53450 -122.30993 27 ft 7 kts 329°
2026-04-26 07:06 47.53488 -122.31025 27 ft 6 kts 330°
2026-04-26 07:07 47.53510 -122.31045 27 ft 0 kts 330°
2026-04-26 07:11 47.53499 -122.31034 27 ft 7 kts 302°
2026-04-26 07:12 47.53507 -122.30996 27 ft 7 kts 71°
2026-04-26 07:12 47.53514 -122.30961 26 ft 8 kts 64°
2026-04-26 07:12 47.53509 -122.30996 27 ft 0 kts 111°
2026-04-26 07:12 47.53511 -122.30966 26 ft 0 kts 240°